Nederland, TX

6:21 AM CDT on July 28, 2016 (GMT -0500)
Southeast Texas Regional

Weather History for KBPT - October, 2012

Change the Weather History Date:

Tuesday, October 16, 2012

  Actual Average Record
Temperature  
Mean Temperature 69 °F 70 °F  
Max Temperature 80 °F 81 °F 94 °F (1916)
Min Temperature 57 °F 60 °F 40 °F (1974)
Degree Days  
Heating Degree Days 0 1  
Month to date heating degree days 4 6  
Since 1 July heating degree days 4 7  
Cooling Degree Days 4 6  
Month to date cooling degree days 121 129  
Year to date cooling degree days 2995 2715  
Growing Degree Days 18 (Base 50)    
Moisture  
Dew Point 61 °F    
Average Humidity 79    
Maximum Humidity 100    
Minimum Humidity 58    
Precipitation  
Precipitation 0.25 in 0.19 in 5.34 in (2006)
Month to date precipitation 0.27 2.85  
Year to date precipitation 56.05 48.05  
Snow  
Snow 0.00 in 0.00 in 0.00 in ()
Month to date snowfall 0.0 0.0  
Since 1 July snowfall 0.0 0.0  
Since 1 September snowfall 0.0 0.0  
Snow Depth 0.00 in    
Sea Level Pressure  
Sea Level Pressure 29.90 in    
Wind  
Wind Speed 5 mph (SSE)    
Max Wind Speed 15 mph    
Max Gust Speed 20 mph    
Visibility 9 miles    
Events Rain    
T = Trace of Precipitation, MM = Missing Value Source: NWS Daily Summary

Daily Weather History Graph

Daily Weather History Graph

Search for Another Location

Airport or City:

Trip Planner

Search our weather history database for the weather conditions in past years. The results will help you decide how hot, cold, wet, or windy it might be!

Date:

Astronomy

Oct. 16, 2012 Rise Set
Actual Time 7:18 AM CDT 6:43 PM CDT
Civil Twilight 6:54 AM CDT 7:07 PM CDT
Nautical Twilight 6:26 AM CDT 7:35 PM CDT
Astronomical Twilight 5:59 AM CDT 8:03 PM CDT
Moon 8:33 AM CDT (10/16) 7:39 PM CDT (10/16)
Length of Visible Light 12h 13m
Length of Day
11h 24m
New Moon, 2% of the Moon is Illuminated
Oct 16
New Moon
Oct 21
First Quarter
Oct 29
Full
Nov 6
Last Quarter
Nov 13
New

Hourly Weather History & Observations

Time (CDT) Temp. Dew Point Humidity Pressure Visibility Wind Dir Wind Speed Gust Speed Precip Events Conditions
12:53 AM 62.1 °F 55.0 °F 78% 29.98 in 10.0 mi North 4.6 mph - N/A   Clear
1:53 AM 61.0 °F 55.9 °F 83% 29.97 in 10.0 mi NE 5.8 mph - N/A   Clear
2:53 AM 62.1 °F 57.0 °F 84% 29.95 in 10.0 mi ENE 3.5 mph - N/A   Clear
3:53 AM 59.0 °F 55.9 °F 90% 29.94 in 10.0 mi Calm Calm - N/A   Clear
4:53 AM 59.0 °F 55.0 °F 87% 29.94 in 10.0 mi NNE 3.5 mph - N/A   Clear
5:53 AM 57.0 °F 55.0 °F 93% 29.94 in 10.0 mi Calm Calm - N/A   Clear
6:53 AM 59.0 °F 55.4 °F 88% 29.94 in 10.0 mi NNE 3.5 mph - N/A   Clear
7:53 AM 63.0 °F 57.9 °F 84% 29.94 in 10.0 mi Calm Calm - N/A   Clear
8:53 AM 66.9 °F 60.1 °F 79% 29.95 in 10.0 mi Variable 3.5 mph - N/A   Clear
9:53 AM 71.1 °F 61.0 °F 70% 29.95 in 10.0 mi East 5.8 mph - N/A   Clear
10:53 AM 75.0 °F 62.1 °F 64% 29.94 in 10.0 mi East 6.9 mph - N/A   Clear
11:53 AM 77.0 °F 64.9 °F 66% 29.93 in 10.0 mi Variable 5.8 mph - N/A   Clear
12:53 PM 77.0 °F 66.0 °F 69% 29.91 in 10.0 mi ESE 3.5 mph - N/A   Clear
1:53 PM 79.0 °F 63.0 °F 58% 29.88 in 10.0 mi Variable 3.5 mph - N/A   Mostly Cloudy
2:53 PM 78.1 °F 63.0 °F 60% 29.85 in 10.0 mi SSW 3.5 mph - 0.01 in   Mostly Cloudy
3:53 PM 77.0 °F 64.0 °F 64% 29.84 in 10.0 mi SSW 4.6 mph - N/A   Scattered Clouds
4:53 PM 75.9 °F 64.9 °F 69% 29.84 in 10.0 mi SSW 3.5 mph - N/A   Mostly Cloudy
5:53 PM 71.1 °F 66.0 °F 84% 29.84 in 10.0 mi WSW 6.9 mph - 0.00 in Rain Light Rain
6:53 PM 66.0 °F 60.1 °F 81% 29.85 in 10.0 mi WNW 6.9 mph - 0.00 in Rain Light Rain
7:53 PM 66.9 °F 64.9 °F 93% 29.87 in 8.0 mi NW 6.9 mph - 0.02 in Rain Light Rain
8:19 PM 66.2 °F 66.2 °F 100% 29.88 in 4.0 mi West 5.8 mph - 0.01 in Rain Rain
8:53 PM 64.0 °F 64.0 °F 100% 29.87 in 4.0 mi South 5.8 mph - 0.07 in Rain Rain
9:53 PM 63.0 °F 62.1 °F 97% 29.88 in 6.0 mi South 8.1 mph - 0.07 in Rain Light Rain
10:53 PM 62.1 °F 60.1 °F 93% 29.85 in 9.0 mi South 8.1 mph - 0.06 in Rain Rain
11:53 PM 61.0 °F 60.1 °F 97% 29.83 in 10.0 mi SSE 5.8 mph - 0.02 in   Clear